COSMOS 2251 DEB, 37535

Orbit data source: Space-Track

COSMOS 2251 DEB, 37535 is space debris in LEO originally from a launch on Wed, 16 Jun 1993 UTC launched from the Plesetsk Missile And Space Complex (PKMTR). The debris from Iridium 33, an American commercial communications satellite, has been tracked extensively since its accidental collision with the defunct Russian satellite Cosmos 2251 in 2009. This event, occurring at high speed in low Earth orbit (LEO), generated thousands of pieces of space debris, significantly increasing the risk of further collisions. The Iridium 33 debris cloud has impacted space traffic management and orbital debris mitigation strategies, making it a subject of ongoing study in space situational awareness.

Loading next visibility...
Identifier
37535, 1993-036BNQ
Orbit
LEO
Country
Flag of CISCIS
Related business
Manufacturer
Unknown
Mission
Spacecraft
Bus & Motor
Unknown
Mass
Unknown
Launch date (UTC)
1993-06-16 (32 years ago)
Launch vehicle
Unknown
Launch site
Plesetsk Missile And Space Complex (PKMTR)
Object type
Payload
Rocket body
Debris
Shape & HBR
Unknown shape, 0.1 m
Radar Cross Section
Small (<0.1 m²)

Expand to show TLE details & history
Last TLE update: 16 hours ago

TLE from 16 hours ago
0 COSMOS 2251 DEB
1 37535U 93036BNQ 25299.90449247  .00003453  00000-0  75415-3 0  9990
2 37535  74.0228 162.6841 0028328 307.2989  76.0267 14.57959757846428
Epoch: 2025-10-26T21:42Z
TLE epoch observation values (Epoch: 2025-10-26T21:42:28.149Z)
Latitude
22.69974°
Longitude
168.39427°
Altitude
697.452 km
Speed
7.512 km/s
True Right ascension
11h 18m 06s
True Declination
22° 34' 36"
Sunlit
Object was in daylight at epoch
Visualization orbit readout
Latitude
Unknown
Longitude
Unknown
Altitude
Unknown
Speed
Unknown
Apparent Right ascension
Unknown
Apparent Declination
Unknown
Sunlit
N/A
Visualization observer readout
Local Sidereal Time
09:07:09
Azimuth
Unknown
Elevation
Unknown
Doppler factor
Unknown
Orbital elements
Apogee altitude
717.414 km
Perigee altitude
677.327 km
Semi-major axis
7,075.507 km
Eccentricity
0.00283
Inclination
74.0228°
RAAN
162.6841°
Arg. of periapsis
307.2989°
True anomaly
76.34198°
Mean anomaly
76.0267°
Eccentric anomaly
76.18431°
Mean motion
3.64676 °/min
Orbital period
98.72 mins
BSTAR
0.00075415

Documentation

Showing up to 5 results
|